Location: ??????
(41.3164°N, 22.6615°E)
Time: 10:07:13
(UTC+00:00)

Cosmos 1980 Rocket - Pass Details

Date: 16 October 2021
Orbit: 828 x 851 km, 71.0° (Epoch: 07 December)

Event Time Altitude Azimuth Distance (km) Brightness Sun altitude
Rises 17:15:00 0° 210° (SSW) 3,372 5.7 -17.3°
Reaches altitude 10° 17:17:26 10° 212° (SSW) 2,445 5.0 -17.8°
Maximum altitude 17:23:01 68° 296° (WNW) 906 2.5 -18.8°
Drops below altitude 10° 17:28:41 10° 19° (NNE) 2,476 4.5 -19.9°
Sets 17:31:11 0° 22° (NNE) 3,417 5.2 -20.3°
